2021-102J (49403 NORAD) Tracking and Keplerian Element Data

This shows tracking and keplerian element data for the satellite.

Feedback or suggestion? Click here.




ElementValue
Catalog49403
Name2021-102J
Epoch Orbit1022
Epoch Day16.12328692
Epoch Year2022
RAAN79.0003
Inclination97.5519
Eccentricity0.002293
Argument of Perigee19.8962
Mean Anonmoly340.3152
Mean Motion15.03014823
Decay Rate2.461E-05
L11 49403U 21102J 22016.12328692 .00002461 00000+0 18630-3 0 9993
L22 49403 97.5519 79.0003 0022930 19.8962 340.3152 15.03014823 10228

Live tracking and technical data element details for 2021-102J (NORAD 49403). 2021-102J can be tracked NOW for your location showing map with azimuth and elevation plus other details from your city location.

Track the satellite on the map from your city or location and see movement details for azimuth, elevation, latitude, longitude, range, height, and movement on the map or in text.







IsCatalogInMostPopularTable: catalog: 49403, numindb: 7
Update: records affected: 1



GetName: 49403 2021-102J

Hit Count: updated at: Thu, 20 Jan 2022 16:24:37 GMT